| time (UTC) | temp F | wind direction | speed MPH | gust MPH | rain 1hr in | rain 24hr in | rain mn in | humidity % | barometer mb |
| 20260509214530 | 49 | 62 | 0.0 | 0.0 | 0.03 | 0.15 | 0.15 | 93 | 1013.3 |
| 20260509214007 | 50 | 62 | 0.0 | 0.0 | 0.03 | 0.15 | 0.15 | 93 | 1013.4 |
| 20260509213511 | 50 | 62 | 0.0 | 0.0 | 0.04 | 0.15 | 0.15 | 93 | 1013.6 |
| 20260509213027 | 50 | 63 | 0.0 | 0.0 | 0.05 | 0.15 | 0.15 | 93 | 1013.4 |
| 20260509212509 | 50 | 63 | 0.0 | 0.0 | 0.05 | 0.15 | 0.15 | 93 | 1013.6 |
| 20260509212003 | 50 | 63 | 0.0 | 0.0 | 0.05 | 0.15 | 0.15 | 93 | 1013.5 |
| 20260509211507 | 50 | 63 | 0.0 | 0.0 | 0.05 | 0.15 | 0.15 | 93 | 1013.5 |
| 20260509211005 | 50 | 63 | 0.0 | 0.0 | 0.04 | 0.14 | 0.14 | 93 | 1013.5 |
| 20260509210504 | 50 | 63 | 0.0 | 0.0 | 0.04 | 0.14 | 0.14 | 93 | 1013.5 |
| 20260509210013 | 50 | 63 | 0.0 | 0.0 | 0.03 | 0.13 | 0.13 | 93 | 1013.4 |
| 20260509205505 | 50 | 63 | 0.0 | 0.0 | 0.03 | 0.13 | 0.13 | 93 | 1013.6 |
| 20260509205005 | 50 | 63 | 0.0 | 0.0 | 0.02 | 0.12 | 0.12 | 93 | 1013.5 |
| 20260509204527 | 50 | 63 | 0.0 | 0.0 | 0.02 | 0.12 | 0.12 | 92 | 1013.3 |
| 20260509204006 | 50 | 63 | 0.0 | 0.0 | 0.02 | 0.12 | 0.12 | 92 | 1013.4 |
| 20260509203506 | 50 | 63 | 0.0 | 0.0 | 0.01 | 0.11 | 0.11 | 92 | 1013.5 |
| 20260509203024 | 50 | 63 | 0.0 | 0.0 | 0.00 | 0.10 | 0.10 | 92 | 1013.4 |
| 20260509202508 | 50 | 63 | 0.0 | 0.0 | 0.00 | 0.10 | 0.10 | 91 | 1013.3 |
| 20260509202009 | 50 | 63 | 0.0 | 0.0 | 0.00 | 0.10 | 0.10 | 91 | 1013.3 |
| 20260509201525 | 51 | 64 | 0.0 | 0.0 | 0.00 | 0.10 | 0.10 | 92 | 1013.3 |
| 20260509201006 | 51 | 64 | 0.0 | 0.0 | 0.00 | 0.10 | 0.10 | 91 | 1013.3 |
| 20260509200503 | 51 | 64 | 0.0 | 0.0 | 0.00 | 0.10 | 0.10 | 91 | 1013.4 |
| 20260509200011 | 51 | 64 | 0.0 | 0.0 | 0.00 | 0.10 | 0.10 | 91 | 1013.4 |
| 20260509195505 | 51 | 64 | 0.0 | 0.0 | 0.00 | 0.10 | 0.10 | 91 | 1013.5 |
| 20260509195006 | 51 | 64 | 0.0 | 0.0 | 0.00 | 0.10 | 0.10 | 91 | 1013.3 |
| 20260509194515 | 51 | 64 | 0.0 | 0.0 | 0.00 | 0.10 | 0.10 | 91 | 1013.4 |
| 20260509194007 | 51 | 64 | 0.0 | 0.0 | 0.00 | 0.10 | 0.10 | 91 | 1013.2 |
| 20260509193507 | 51 | 64 | 0.0 | 5.0 | 0.00 | 0.10 | 0.10 | 92 | 1013.2 |
| 20260509193025 | 51 | 360 | 0.0 | 5.0 | 0.00 | 0.10 | 0.10 | 92 | 1013.1 |
| 20260509192506 | 51 | 4 | 0.0 | 4.0 | 0.00 | 0.10 | 0.10 | 92 | 1013.0 |
| 20260509192005 | 51 | 4 | 0.0 | 3.0 | 0.00 | 0.10 | 0.10 | 92 | 1013.1 |
| 20260509191524 | 51 | 17 | 0.0 | 6.0 | 0.00 | 0.10 | 0.10 | 92 | 1013.4 |
| 20260509191010 | 50 | 359 | 0.0 | 6.0 | 0.00 | 0.10 | 0.10 | 93 | 1013.5 |
| 20260509190509 | 50 | 338 | 0.0 | 4.0 | 0.00 | 0.10 | 0.10 | 93 | 1013.4 |
| 20260509190030 | 50 | 1 | 0.0 | 7.0 | 0.01 | 0.10 | 0.10 | 93 | 1013.3 |
| 20260509185510 | 50 | 1 | 0.0 | 7.0 | 0.01 | 0.10 | 0.10 | 93 | 1013.3 |
| 20260509185009 | 50 | 11 | 0.0 | 5.0 | 0.01 | 0.10 | 0.10 | 93 | 1013.6 |
| 20260509184512 | 49 | 360 | 1.0 | 5.0 | 0.01 | 0.10 | 0.10 | 93 | 1013.8 |
| 20260509184002 | 49 | 360 | 0.0 | 5.0 | 0.01 | 0.10 | 0.10 | 93 | 1013.7 |
| 20260509183506 | 49 | 359 | 0.0 | 4.0 | 0.01 | 0.10 | 0.10 | 93 | 1013.7 |
| 20260509183016 | 49 | 11 | 0.0 | 4.0 | 0.01 | 0.10 | 0.10 | 93 | 1013.8 |
| 20260509182504 | 49 | 4 | 0.0 | 4.0 | 0.01 | 0.10 | 0.10 | 93 | 1013.9 |
| 20260509182006 | 49 | 359 | 1.0 | 4.0 | 0.01 | 0.10 | 0.10 | 93 | 1013.9 |
| 20260509181525 | 49 | 360 | 0.0 | 0.0 | 0.01 | 0.10 | 0.10 | 93 | 1014.1 |
| 20260509181007 | 49 | 360 | 0.0 | 0.0 | 0.01 | 0.10 | 0.10 | 93 | 1014.0 |
| 20260509180507 | 48 | 360 | 0.0 | 0.0 | 0.02 | 0.10 | 0.10 | 93 | 1014.1 |
| 20260509180023 | 48 | 360 | 0.0 | 4.0 | 0.01 | 0.09 | 0.09 | 93 | 1014.2 |
| 20260509175511 | 49 | 360 | 0.0 | 4.0 | 0.01 | 0.09 | 0.09 | 93 | 1014.1 |
| 20260509175007 | 48 | 349 | 0.0 | 0.0 | 0.01 | 0.09 | 0.09 | 93 | 1014.2 |
| 20260509174524 | 48 | 348 | 0.0 | 3.0 | 0.01 | 0.09 | 0.09 | 93 | 1014.2 |
| 20260509174011 | 48 | 348 | 0.0 | 3.0 | 0.02 | 0.09 | 0.09 | 93 | 1014.1 |
| 20260509173511 | 48 | 348 | 0.0 | 4.0 | 0.02 | 0.09 | 0.09 | 93 | 1014.4 |
| 20260509173010 | 48 | 349 | 0.0 | 4.0 | 0.02 | 0.09 | 0.09 | 93 | 1014.3 |
| 20260509172507 | 48 | 1 | 0.0 | 2.0 | 0.02 | 0.09 | 0.09 | 93 | 1014.2 |
| 20260509172004 | 48 | 13 | 0.0 | 0.0 | 0.03 | 0.09 | 0.09 | 93 | 1014.8 |
| 20260509171516 | 48 | 13 | 0.0 | 0.0 | 0.03 | 0.09 | 0.09 | 93 | 1015.0 |
| 20260509171002 | 48 | 13 | 0.0 | 0.0 | 0.03 | 0.09 | 0.09 | 93 | 1014.9 |
| 20260509170503 | 48 | 13 | 0.0 | 0.0 | 0.02 | 0.08 | 0.08 | 93 | 1015.0 |
| 20260509170005 | 48 | 13 | 0.0 | 0.0 | 0.02 | 0.08 | 0.08 | 93 | 1015.1 |
| 20260509165503 | 48 | 13 | 0.0 | 0.0 | 0.02 | 0.08 | 0.08 | 92 | 1014.9 |
| 20260509165003 | 48 | 13 | 0.0 | 0.0 | 0.02 | 0.08 | 0.08 | 92 | 1014.9 |
| 20260509164504 | 48 | 13 | 0.0 | 0.0 | 0.02 | 0.08 | 0.08 | 92 | 1015.0 |
| 20260509164003 | 48 | 13 | 0.0 | 0.0 | 0.01 | 0.07 | 0.07 | 92 | 1015.2 |
| 20260509163503 | 48 | 13 | 0.0 | 0.0 | 0.02 | 0.07 | 0.07 | 92 | 1015.1 |
| 20260509163018 | 48 | 13 | 0.0 | 0.0 | 0.02 | 0.07 | 0.07 | 92 | 1015.0 |
| 20260509162504 | 48 | 13 | 0.0 | 0.0 | 0.02 | 0.07 | 0.07 | 91 | 1014.9 |
| 20260509162004 | 48 | 13 | 0.0 | 4.0 | 0.01 | 0.06 | 0.06 | 91 | 1014.9 |
| 20260509161514 | 48 | 13 | 0.0 | 4.0 | 0.02 | 0.06 | 0.06 | 92 | 1014.6 |
| 20260509161004 | 48 | 15 | 0.0 | 3.0 | 0.02 | 0.06 | 0.06 | 92 | 1014.6 |
| 20260509160504 | 48 | 17 | 0.0 | 0.0 | 0.02 | 0.06 | 0.06 | 92 | 1014.7 |
| 20260509160020 | 47 | 17 | 0.0 | 0.0 | 0.02 | 0.06 | 0.06 | 92 | 1014.8 |
| 20260509155507 | 47 | 117 | 0.0 | 0.0 | 0.02 | 0.06 | 0.06 | 92 | 1015.0 |
| 20260509155002 | 47 | 141 | 0.0 | 0.0 | 0.02 | 0.06 | 0.06 | 91 | 1015.1 |
| 20260509154504 | 47 | 141 | 0.0 | 0.0 | 0.02 | 0.06 | 0.06 | 91 | 1015.2 |
| 20260509154004 | 47 | 141 | 0.0 | 0.0 | 0.02 | 0.06 | 0.06 | 91 | 1015.4 |
| 20260509153504 | 47 | 141 | 0.0 | 0.0 | 0.02 | 0.05 | 0.05 | 91 | 1015.5 |
| 20260509153011 | 47 | 141 | 0.0 | 0.0 | 0.02 | 0.05 | 0.05 | 90 | 1015.6 |
| 20260509152504 | 47 | 141 | 0.0 | 0.0 | 0.02 | 0.05 | 0.05 | 90 | 1015.6 |
| 20260509152005 | 47 | 141 | 0.0 | 0.0 | 0.02 | 0.05 | 0.05 | 90 | 1015.6 |
| 20260509151513 | 47 | 141 | 0.0 | 0.0 | 0.01 | 0.04 | 0.04 | 90 | 1015.5 |
| 20260509151004 | 47 | 141 | 0.0 | 0.0 | 0.02 | 0.04 | 0.04 | 90 | 1015.5 |
| 20260509150507 | 47 | 141 | 0.0 | 0.0 | 0.02 | 0.04 | 0.04 | 90 | 1015.7 |
| 20260509150019 | 47 | 141 | 0.0 | 0.0 | 0.02 | 0.04 | 0.04 | 90 | 1015.7 |
| 20260509145505 | 47 | 141 | 0.0 | 0.0 | 0.02 | 0.04 | 0.04 | 90 | 1015.7 |
| 20260509145005 | 47 | 141 | 0.0 | 0.0 | 0.03 | 0.04 | 0.04 | 90 | 1015.7 |
| 20260509144518 | 47 | 141 | 0.0 | 0.0 | 0.03 | 0.04 | 0.04 | 90 | 1015.7 |
| 20260509144009 | 47 | 141 | 0.0 | 0.0 | 0.03 | 0.04 | 0.04 | 90 | 1015.8 |
| 20260509143509 | 47 | 141 | 0.0 | 0.0 | 0.02 | 0.03 | 0.03 | 89 | 1015.8 |
| 20260509143015 | 47 | 141 | 0.0 | 2.0 | 0.03 | 0.03 | 0.03 | 89 | 1015.8 |
| 20260509142503 | 47 | 139 | 0.0 | 2.0 | 0.03 | 0.03 | 0.03 | 89 | 1015.8 |
| 20260509142004 | 47 | 146 | 0.0 | 0.0 | 0.03 | 0.03 | 0.03 | 90 | 1015.8 |
| 20260509141508 | 47 | 146 | 0.0 | 0.0 | 0.03 | 0.03 | 0.03 | 90 | 1015.9 |
| 20260509141004 | 47 | 146 | 0.0 | 0.0 | 0.02 | 0.02 | 0.02 | 90 | 1015.9 |
| 20260509140505 | 47 | 146 | 0.0 | 0.0 | 0.02 | 0.02 | 0.02 | 89 | 1015.8 |
| 20260509140014 | 47 | 146 | 0.0 | 0.0 | 0.02 | 0.02 | 0.02 | 89 | 1015.8 |
| 20260509135504 | 47 | 146 | 0.0 | 0.0 | 0.02 | 0.02 | 0.02 | 89 | 1015.7 |
| 20260509135007 | 47 | 146 | 0.0 | 0.0 | 0.01 | 0.01 | 0.01 | 89 | 1015.8 |
| 20260509134518 | 46 | 146 | 0.0 | 0.0 | 0.01 | 0.01 | 0.01 | 89 | 1015.6 |
| 20260509134005 | 46 | 146 | 0.0 | 0.0 | 0.01 | 0.01 | 0.01 | 90 | 1015.6 |
| 20260509133508 | 46 | 146 | 0.0 | 0.0 | 0.01 | 0.01 | 0.01 | 90 | 1015.5 |
| 20260509133021 | 46 | 146 | 0.0 | 0.0 | 0.00 | 0.00 | 0.00 | 89 | 1015.5 |
| 20260509132506 | 46 | 146 | 0.0 | 0.0 | 0.00 | 0.00 | 0.00 | 89 | 1015.5 |
| 20260509132009 | 46 | 146 | 0.0 | 0.0 | 0.00 | 0.00 | 0.00 | 88 | 1015.5 |
| 20260509131503 | 46 | 146 | 0.0 | 0.0 | 0.00 | 0.00 | 0.00 | 87 | 1015.5 |
| 20260509131003 | 46 | 146 | 0.0 | 0.0 | 0.00 | 0.00 | 0.00 | 87 | 1015.5 |
| 20260509130504 | 46 | 146 | 0.0 | 0.0 | 0.00 | 0.00 | 0.00 | 87 | 1015.5 |
| 20260509130021 | 45 | 146 | 0.0 | 0.0 | 0.00 | 0.00 | 0.00 | 86 | 1015.6 |
| 20260509125507 | 45 | 146 | 0.0 | 0.0 | 0.00 | 0.00 | 0.00 | 86 | 1015.4 |
| 20260509125013 | 45 | 146 | 0.0 | 0.0 | 0.00 | 0.00 | 0.00 | 86 | 1015.5 |
| 20260509124520 | 45 | 146 | 0.0 | 0.0 | 0.00 | 0.00 | 0.00 | 86 | 1015.6 |
| 20260509124006 | 45 | 146 | 0.0 | 0.0 | 0.00 | 0.00 | 0.00 | 86 | 1015.6 |
| 20260509123506 | 44 | 146 | 0.0 | 0.0 | 0.00 | 0.00 | 0.00 | 87 | 1015.6 |
| 20260509123025 | 44 | 146 | 0.0 | 0.0 | 0.00 | 0.00 | 0.00 | 87 | 1015.7 |
| 20260509122506 | 44 | 146 | 0.0 | 0.0 | 0.00 | 0.00 | 0.00 | 87 | 1015.8 |
| 20260509122007 | 43 | 146 | 0.0 | 0.0 | 0.00 | 0.00 | 0.00 | 87 | 1015.8 |
| 20260509121524 | 43 | 146 | 0.0 | 0.0 | 0.00 | 0.00 | 0.00 | 89 | 1015.8 |
| 20260509121013 | 43 | 146 | 0.0 | 0.0 | 0.00 | 0.00 | 0.00 | 89 | 1015.8 |
| 20260509120509 | 43 | 146 | 0.0 | 0.0 | 0.00 | 0.00 | 0.00 | 89 | 1015.8 |
| 20260509120028 | 42 | 146 | 0.0 | 0.0 | 0.00 | 0.00 | 0.00 | 89 | 1015.9 |
| 20260509115503 | 42 | 146 | 0.0 | 0.0 | 0.00 | 0.00 | 0.00 | 88 | 1015.8 |
| 20260509115007 | 42 | 139 | 0.0 | 0.0 | 0.00 | 0.00 | 0.00 | 89 | 1016.0 |
| 20260509114513 | 42 | 63 | 0.0 | 0.0 | 0.00 | 0.00 | 0.00 | 89 | 1015.6 |
| 20260509114004 | 41 | 63 | 0.0 | 0.0 | 0.00 | 0.00 | 0.00 | 90 | 1015.8 |
| 20260509113504 | 41 | 63 | 0.0 | 0.0 | 0.00 | 0.00 | 0.00 | 90 | 1015.7 |
| 20260509113014 | 41 | 63 | 0.0 | 0.0 | 0.00 | 0.00 | 0.00 | 90 | 1015.7 |
| 20260509112508 | 41 | 63 | 0.0 | 0.0 | 0.00 | 0.00 | 0.00 | 91 | 1015.7 |
| 20260509112008 | 40 | 63 | 0.0 | 0.0 | 0.00 | 0.00 | 0.00 | 91 | 1015.8 |
| 20260509111522 | 40 | 63 | 0.0 | 0.0 | 0.00 | 0.00 | 0.00 | 92 | 1015.8 |
| 20260509111007 | 40 | 63 | 0.0 | 0.0 | 0.00 | 0.00 | 0.00 | 92 | 1015.8 |
| 20260509110506 | 40 | 63 | 0.0 | 0.0 | 0.00 | 0.00 | 0.00 | 92 | 1015.8 |
| 20260509110025 | 39 | 63 | 0.0 | 0.0 | 0.00 | 0.00 | 0.00 | 92 | 1015.8 |
| 20260509105507 | 39 | 63 | 0.0 | 0.0 | 0.00 | 0.00 | 0.00 | 92 | 1015.7 |
| 20260509105008 | 39 | 63 | 0.0 | 0.0 | 0.00 | 0.00 | 0.00 | 92 | 1015.8 |
| 20260509104526 | 39 | 63 | 0.0 | 0.0 | 0.00 | 0.00 | 0.00 | 92 | 1015.8 |
| 20260509104009 | 39 | 63 | 0.0 | 0.0 | 0.00 | 0.00 | 0.00 | 92 | 1015.8 |
| 20260509103506 | 38 | 63 | 0.0 | 0.0 | 0.00 | 0.00 | 0.00 | 93 | 1015.8 |
| 20260509103010 | 38 | 63 | 0.0 | 0.0 | 0.00 | 0.00 | 0.00 | 93 | 1015.7 |
| 20260509102504 | 38 | 63 | 0.0 | 0.0 | 0.00 | 0.00 | 0.00 | 93 | 1015.8 |
| 20260509102007 | 38 | 63 | 0.0 | 0.0 | 0.00 | 0.00 | 0.00 | 93 | 1015.9 |
| 20260509101516 | 37 | 63 | 0.0 | 0.0 | 0.00 | 0.00 | 0.00 | 93 | 1015.7 |
| 20260509101008 | 37 | 63 | 0.0 | 0.0 | 0.00 | 0.00 | 0.00 | 93 | 1015.6 |
| 20260509100506 | 37 | 63 | 0.0 | 0.0 | 0.00 | 0.00 | 0.00 | 93 | 1015.6 |
| 20260509100024 | 36 | 63 | 0.0 | 0.0 | 0.00 | 0.00 | 0.00 | 93 | 1015.5 |
| 20260509095510 | 36 | 63 | 0.0 | 0.0 | 0.00 | 0.00 | 0.00 | 92 | 1015.5 |
| 20260509095008 | 36 | 63 | 0.0 | 0.0 | 0.00 | 0.00 | 0.00 | 92 | 1015.4 |
| 20260509094524 | 36 | 63 | 0.0 | 0.0 | 0.00 | 0.00 | 0.00 | 92 | 1015.3 |
| 20260509094011 | 36 | 63 | 0.0 | 0.0 | 0.00 | 0.00 | 0.00 | 92 | 1015.1 |
| 20260509093511 | 36 | 63 | 0.0 | 0.0 | 0.00 | 0.00 | 0.00 | 92 | 1015.1 |
| 20260509093027 | 36 | 63 | 0.0 | 0.0 | 0.00 | 0.00 | 0.00 | 92 | 1015.0 |
| 20260509092506 | 36 | 63 | 0.0 | 0.0 | 0.00 | 0.00 | 0.00 | 92 | 1014.9 |
| 20260509092010 | 35 | 63 | 0.0 | 0.0 | 0.00 | 0.00 | 0.00 | 91 | 1015.0 |
| 20260509091511 | 35 | 63 | 0.0 | 0.0 | 0.00 | 0.00 | 0.00 | 91 | 1014.9 |
| 20260509091004 | 35 | 63 | 0.0 | 0.0 | 0.00 | 0.00 | 0.00 | 91 | 1015.0 |
| 20260509090507 | 35 | 63 | 0.0 | 0.0 | 0.00 | 0.00 | 0.00 | 91 | 1015.0 |
| 20260509090016 | 35 | 63 | 0.0 | 0.0 | 0.00 | 0.00 | 0.00 | 91 | 1015.0 |
| 20260509085508 | 35 | 63 | 0.0 | 0.0 | 0.00 | 0.00 | 0.00 | 91 | 1015.0 |
| 20260509085007 | 35 | 63 | 0.0 | 0.0 | 0.00 | 0.00 | 0.00 | 90 | 1015.0 |
| 20260509084524 | 36 | 63 | 0.0 | 0.0 | 0.00 | 0.00 | 0.00 | 90 | 1014.9 |
| 20260509084009 | 36 | 63 | 0.0 | 0.0 | 0.00 | 0.00 | 0.00 | 90 | 1014.8 |
| 20260509083507 | 36 | 63 | 0.0 | 0.0 | 0.00 | 0.00 | 0.00 | 90 | 1014.6 |
| 20260509083038 | 36 | 63 | 0.0 | 0.0 | 0.00 | 0.00 | 0.00 | 90 | 1014.6 |
| 20260509082507 | 36 | 63 | 0.0 | 0.0 | 0.00 | 0.00 | 0.00 | 90 | 1014.6 |
| 20260509082012 | 36 | 63 | 0.0 | 0.0 | 0.00 | 0.00 | 0.00 | 90 | 1014.7 |
| 20260509081528 | 36 | 63 | 0.0 | 0.0 | 0.00 | 0.00 | 0.00 | 90 | 1014.9 |
| 20260509081012 | 36 | 63 | 0.0 | 0.0 | 0.00 | 0.00 | 0.00 | 90 | 1014.8 |
| 20260509080508 | 36 | 63 | 0.0 | 0.0 | 0.00 | 0.00 | 0.00 | 90 | 1014.8 |
| 20260509080031 | 36 | 63 | 0.0 | 0.0 | 0.00 | 0.00 | 0.00 | 89 | 1014.7 |
| 20260509075512 | 36 | 63 | 0.0 | 0.0 | 0.00 | 0.00 | 0.00 | 89 | 1014.7 |
| 20260509075009 | 36 | 63 | 0.0 | 0.0 | 0.00 | 0.00 | 0.00 | 89 | 1014.7 |
| 20260509074518 | 36 | 63 | 0.0 | 0.0 | 0.00 | 0.00 | 0.00 | 89 | 1014.7 |
| 20260509074006 | 36 | 63 | 0.0 | 0.0 | 0.00 | 0.00 | 0.00 | 89 | 1014.7 |
| 20260509073507 | 36 | 63 | 0.0 | 0.0 | 0.00 | 0.00 | 0.00 | 89 | 1014.7 |
| 20260509073022 | 37 | 63 | 0.0 | 0.0 | 0.00 | 0.00 | 0.00 | 89 | 1014.5 |
| 20260509072509 | 37 | 63 | 0.0 | 0.0 | 0.00 | 0.00 | 0.00 | 89 | 1014.4 |
| 20260509072012 | 37 | 63 | 0.0 | 0.0 | 0.00 | 0.00 | 0.00 | 89 | 1014.5 |
| 20260509071526 | 37 | 63 | 0.0 | 0.0 | 0.00 | 0.00 | 0.00 | 89 | 1014.6 |
| 20260509071011 | 37 | 63 | 0.0 | 0.0 | 0.00 | 0.00 | 0.00 | 88 | 1014.6 |
| 20260509070507 | 37 | 63 | 0.0 | 0.0 | 0.00 | 0.00 | 0.00 | 88 | 1014.5 |
| 20260509070028 | 37 | 63 | 0.0 | 0.0 | 0.00 | 0.00 | 0.00 | 88 | 1014.5 |
| 20260509065509 | 37 | 63 | 0.0 | 0.0 | 0.00 | 0.00 | 0.00 | 87 | 1014.3 |
| 20260509065010 | 37 | 63 | 0.0 | 0.0 | 0.00 | 0.00 | 0.00 | 87 | 1014.2 |
| 20260509064530 | 38 | 63 | 0.0 | 0.0 | 0.00 | 0.00 | 0.00 | 86 | 1014.1 |
| 20260509064010 | 38 | 63 | 0.0 | 0.0 | 0.00 | 0.00 | 0.00 | 86 | 1014.1 |
| 20260509063509 | 38 | 63 | 0.0 | 0.0 | 0.00 | 0.00 | 0.00 | 86 | 1014.1 |
| 20260509063019 | 38 | 63 | 0.0 | 0.0 | 0.00 | 0.00 | 0.00 | 86 | 1014.2 |
| 20260509062508 | 38 | 63 | 0.0 | 0.0 | 0.00 | 0.00 | 0.00 | 86 | 1014.3 |
| 20260509062013 | 38 | 63 | 0.0 | 0.0 | 0.00 | 0.00 | 0.00 | 86 | 1014.3 |
| 20260509061525 | 38 | 63 | 0.0 | 0.0 | 0.00 | 0.00 | 0.00 | 86 | 1014.3 |
| 20260509061008 | 38 | 63 | 0.0 | 0.0 | 0.00 | 0.00 | 0.00 | 86 | 1014.3 |
| 20260509060514 | 38 | 63 | 0.0 | 0.0 | 0.00 | 0.00 | 0.00 | 86 | 1014.3 |
| 20260509060026 | 39 | 63 | 0.0 | 0.0 | 0.00 | 0.00 | 0.00 | 85 | 1014.4 |
| 20260509055513 | 39 | 63 | 0.0 | 0.0 | 0.00 | 0.00 | 0.00 | 85 | 1014.4 |
| 20260509055010 | 39 | 63 | 0.0 | 0.0 | 0.00 | 0.00 | 0.00 | 85 | 1014.4 |
| 20260509054530 | 39 | 63 | 0.0 | 0.0 | 0.00 | 0.00 | 0.00 | 84 | 1014.3 |
| 20260509054010 | 39 | 63 | 0.0 | 0.0 | 0.00 | 0.00 | 0.00 | 84 | 1014.3 |
| 20260509053509 | 39 | 63 | 0.0 | 0.0 | 0.00 | 0.00 | 0.00 | 84 | 1014.4 |
| 20260509053011 | 39 | 63 | 0.0 | 0.0 | 0.00 | 0.00 | 0.00 | 84 | 1014.3 |
| 20260509052504 | 39 | 63 | 0.0 | 0.0 | 0.00 | 0.00 | 0.00 | 83 | 1014.3 |
| 20260509052005 | 40 | 63 | 0.0 | 0.0 | 0.00 | 0.00 | 0.00 | 83 | 1014.2 |
| 20260509051508 | 40 | 63 | 0.0 | 0.0 | 0.00 | 0.00 | 0.00 | 83 | 1014.2 |
| 20260509051004 | 40 | 63 | 0.0 | 0.0 | 0.00 | 0.00 | 0.00 | 83 | 1014.2 |
| 20260509050504 | 40 | 63 | 0.0 | 0.0 | 0.00 | 0.00 | 0.00 | 82 | 1014.1 |
| 20260509050010 | 40 | 63 | 0.0 | 0.0 | 0.00 | 0.00 | 0.00 | 82 | 1014.1 |
| 20260509045508 | 41 | 63 | 0.0 | 0.0 | 0.00 | 0.00 | 0.00 | 81 | 1014.1 |
| 20260509045004 | 41 | 63 | 0.0 | 0.0 | 0.00 | 0.00 | 0.00 | 81 | 1014.1 |
| 20260509044510 | 41 | 63 | 0.0 | 0.0 | 0.00 | 0.00 | 0.00 | 80 | 1014.1 |
| 20260509044005 | 41 | 63 | 0.0 | 0.0 | 0.00 | 0.00 | 0.00 | 79 | 1014.2 |
| 20260509043505 | 41 | 63 | 0.0 | 0.0 | 0.00 | 0.00 | 0.00 | 79 | 1014.1 |
| 20260509043008 | 41 | 63 | 0.0 | 0.0 | 0.00 | 0.00 | 0.00 | 79 | 1014.1 |
| 20260509042504 | 42 | 63 | 0.0 | 0.0 | 0.00 | 0.00 | 0.00 | 78 | 1014.1 |
| 20260509042004 | 42 | 63 | 0.0 | 0.0 | 0.00 | 0.00 | 0.00 | 77 | 1014.0 |
| 20260509041511 | 42 | 63 | 0.0 | 0.0 | 0.00 | 0.00 | 0.00 | 77 | 1014.0 |
| 20260509041006 | 42 | 63 | 0.0 | 0.0 | 0.00 | 0.00 | 0.00 | 76 | 1013.9 |
| 20260509040504 | 43 | 63 | 0.0 | 0.0 | 0.00 | 0.00 | 0.00 | 76 | 1013.9 |
| 20260509040010 | 43 | 63 | 0.0 | 0.0 | 0.00 | 0.00 | 0.00 | 76 | 1013.9 |
| 20260509035507 | 43 | 63 | 0.0 | 0.0 | 0.00 | 0.00 | 0.00 | 75 | 1013.8 |
| 20260509035005 | 43 | 63 | 0.0 | 0.0 | 0.00 | 0.00 | 0.00 | 74 | 1013.9 |
| 20260509034509 | 43 | 63 | 0.0 | 0.0 | 0.00 | 0.00 | 0.00 | 74 | 1013.9 |
| 20260509034004 | 44 | 63 | 0.0 | 0.0 | 0.00 | 0.00 | 0.00 | 74 | 1013.8 |
| 20260509033505 | 44 | 63 | 0.0 | 0.0 | 0.00 | 0.00 | 0.00 | 73 | 1013.8 |
| 20260509033012 | 44 | 63 | 0.0 | 0.0 | 0.00 | 0.00 | 0.00 | 72 | 1013.8 |
| 20260509032505 | 44 | 63 | 0.0 | 0.0 | 0.00 | 0.00 | 0.00 | 72 | 1013.8 |
| 20260509032006 | 44 | 63 | 0.0 | 0.0 | 0.00 | 0.00 | 0.00 | 71 | 1013.7 |
| 20260509031513 | 44 | 63 | 0.0 | 0.0 | 0.00 | 0.00 | 0.00 | 71 | 1013.6 |
| 20260509031004 | 45 | 63 | 0.0 | 0.0 | 0.00 | 0.00 | 0.00 | 70 | 1013.7 |
| 20260509030508 | 45 | 63 | 0.0 | 0.0 | 0.00 | 0.00 | 0.00 | 70 | 1013.6 |
| 20260509030012 | 45 | 63 | 0.0 | 0.0 | 0.00 | 0.00 | 0.00 | 69 | 1013.6 |
| 20260509025504 | 45 | 63 | 0.0 | 0.0 | 0.00 | 0.00 | 0.00 | 69 | 1013.6 |
| 20260509025004 | 45 | 63 | 0.0 | 0.0 | 0.00 | 0.00 | 0.00 | 68 | 1013.6 |
| 20260509024515 | 46 | 63 | 0.0 | 0.0 | 0.00 | 0.00 | 0.00 | 68 | 1013.5 |
| 20260509024005 | 46 | 63 | 0.0 | 0.0 | 0.00 | 0.00 | 0.00 | 67 | 1013.5 |
| 20260509023505 | 46 | 63 | 0.0 | 0.0 | 0.00 | 0.00 | 0.00 | 68 | 1013.4 |
| 20260509023016 | 46 | 63 | 0.0 | 0.0 | 0.00 | 0.00 | 0.00 | 67 | 1013.5 |
| 20260509022507 | 47 | 63 | 0.0 | 0.0 | 0.00 | 0.00 | 0.00 | 67 | 1013.4 |
| 20260509022005 | 47 | 63 | 0.0 | 0.0 | 0.00 | 0.00 | 0.00 | 66 | 1013.4 |
| 20260509021512 | 47 | 63 | 0.0 | 0.0 | 0.00 | 0.00 | 0.00 | 65 | 1013.3 |
| 20260509021004 | 47 | 63 | 0.0 | 0.0 | 0.00 | 0.00 | 0.00 | 63 | 1013.2 |
| 20260509020503 | 47 | 63 | 0.0 | 0.0 | 0.00 | 0.00 | 0.00 | 63 | 1013.1 |
| 20260509020023 | 48 | 63 | 0.0 | 0.0 | 0.00 | 0.00 | 0.00 | 62 | 1013.0 |
| 20260509015503 | 48 | 63 | 0.0 | 0.0 | 0.00 | 0.00 | 0.00 | 62 | 1012.9 |
| 20260509015008 | 48 | 63 | 0.0 | 0.0 | 0.00 | 0.00 | 0.00 | 61 | 1012.9 |
| 20260509014517 | 49 | 63 | 0.0 | 0.0 | 0.00 | 0.00 | 0.00 | 61 | 1012.8 |
| 20260509014004 | 49 | 63 | 0.0 | 0.0 | 0.00 | 0.00 | 0.00 | 60 | 1012.8 |
| 20260509013504 | 49 | 63 | 0.0 | 0.0 | 0.00 | 0.00 | 0.00 | 59 | 1012.7 |
| 20260509013018 | 50 | 63 | 0.0 | 0.0 | 0.00 | 0.00 | 0.00 | 58 | 1012.7 |
| 20260509012505 | 50 | 63 | 0.0 | 0.0 | 0.00 | 0.00 | 0.00 | 57 | 1012.6 |
| 20260509012005 | 50 | 63 | 0.0 | 0.0 | 0.00 | 0.00 | 0.00 | 57 | 1012.5 |
| 20260509011524 | 51 | 63 | 0.0 | 0.0 | 0.00 | 0.00 | 0.00 | 57 | 1012.4 |
| 20260509011004 | 51 | 63 | 0.0 | 0.0 | 0.00 | 0.00 | 0.00 | 56 | 1012.3 |
| 20260509010510 | 51 | 63 | 0.0 | 0.0 | 0.00 | 0.00 | 0.00 | 55 | 1012.3 |
| 20260509010035 | 51 | 63 | 0.0 | 0.0 | 0.00 | 0.00 | 0.00 | 53 | 1012.2 |
| 20260509005505 | 52 | 63 | 0.0 | 0.0 | 0.00 | 0.00 | 0.00 | 53 | 1012.1 |
| 20260509005006 | 52 | 63 | 0.0 | 0.0 | 0.00 | 0.00 | 0.00 | 53 | 1011.8 |
| 20260509004526 | 52 | 63 | 0.0 | 0.0 | 0.00 | 0.00 | 0.00 | 51 | 1011.7 |
| 20260509004006 | 53 | 63 | 0.0 | 0.0 | 0.00 | 0.00 | 0.00 | 50 | 1011.7 |
| 20260509003504 | 53 | 63 | 0.0 | 0.0 | 0.00 | 0.00 | 0.00 | 50 | 1011.5 |
| 20260509003017 | 53 | 63 | 0.0 | 0.0 | 0.00 | 0.00 | 0.00 | 50 | 1011.5 |
| 20260509002510 | 53 | 63 | 0.0 | 0.0 | 0.00 | 0.00 | 0.00 | 49 | 1011.5 |
| 20260509002006 | 54 | 63 | 0.0 | 1.0 | 0.00 | 0.00 | 0.00 | 49 | 1011.4 |
| 20260509001520 | 54 | 62 | 0.0 | 1.0 | 0.00 | 0.00 | 0.00 | 48 | 1011.3 |
| 20260509001005 | 54 | 63 | 0.0 | 2.0 | 0.00 | 0.00 | 0.00 | 48 | 1011.2 |
| 20260509000508 | 54 | 335 | 0.0 | 2.0 | 0.00 | 0.00 | 0.00 | 48 | 1011.1 |
| 20260509000020 | 54 | 202 | 0.0 | 2.0 | 0.00 | 0.00 | 0.00 | 46 | 1011.1 |
| 20260508235507 | 55 | 202 | 0.0 | 2.0 | 0.00 | 0.00 | 0.00 | 46 | 1011.1 |
| 20260508235009 | 55 | 277 | 0.0 | 1.0 | 0.00 | 0.00 | 0.00 | 46 | 1010.9 |
| 20260508234524 | 55 | 319 | 0.0 | 1.0 | 0.00 | 0.00 | 0.00 | 45 | 1010.8 |
| 20260508234008 | 55 | 277 | 0.0 | 1.0 | 0.00 | 0.00 | 0.00 | 44 | 1010.8 |
| 20260508233504 | 56 | 286 | 0.0 | 3.0 | 0.00 | 0.00 | 0.00 | 44 | 1010.8 |
| 20260508233006 | 56 | 160 | 0.0 | 5.0 | 0.00 | 0.00 | 0.00 | 43 | 1010.6 |
| 20260508232504 | 56 | 250 | 0.0 | 8.0 | 0.00 | 0.00 | 0.00 | 41 | 1010.6 |
| 20260508232003 | 57 | 304 | 2.0 | 8.0 | 0.00 | 0.00 | 0.00 | 41 | 1010.4 |
| 20260508231505 | 57 | 195 | 0.0 | 6.0 | 0.00 | 0.00 | 0.00 | 40 | 1010.2 |
| 20260508231003 | 57 | 302 | 0.0 | 4.0 | 0.00 | 0.00 | 0.00 | 40 | 1010.1 |
| 20260508230503 | 58 | 276 | 0.0 | 4.0 | 0.00 | 0.00 | 0.00 | 41 | 1010.0 |
| 20260508230009 | 58 | 295 | 0.0 | 3.0 | 0.00 | 0.00 | 0.00 | 39 | 1010.0 |
| 20260508225504 | 58 | 320 | 0.0 | 5.0 | 0.00 | 0.00 | 0.00 | 40 | 1009.9 |
| 20260508225004 | 58 | 332 | 0.0 | 8.0 | 0.00 | 0.00 | 0.00 | 40 | 1009.8 |
| 20260508224515 | 58 | 359 | 1.0 | 8.0 | 0.00 | 0.00 | 0.00 | 39 | 1009.8 |
| 20260508224003 | 58 | 333 | 0.0 | 2.0 | 0.00 | 0.00 | 0.00 | 40 | 1009.8 |
| 20260508223504 | 58 | 357 | 0.0 | 2.0 | 0.00 | 0.00 | 0.00 | 40 | 1009.7 |
| 20260508223004 | 58 | 241 | 0.0 | 6.0 | 0.00 | 0.00 | 0.00 | 39 | 1009.7 |
| 20260508222506 | 58 | 304 | 0.0 | 6.0 | 0.00 | 0.00 | 0.00 | 36 | 1009.7 |
| 20260508222003 | 59 | 288 | 1.0 | 4.0 | 0.00 | 0.00 | 0.00 | 36 | 1009.6 |
| 20260508221506 | 59 | 153 | 0.0 | 4.0 | 0.00 | 0.00 | 0.00 | 36 | 1009.6 |
| 20260508221004 | 59 | 217 | 0.0 | 6.0 | 0.00 | 0.00 | 0.00 | 35 | 1009.6 |
| 20260508220507 | 59 | 251 | 0.0 | 14.0 | 0.00 | 0.00 | 0.00 | 34 | 1009.6 |
| 20260508220007 | 59 | 238 | 3.0 | 14.0 | 0.00 | 0.00 | 0.00 | 33 | 1009.4 |
| 20260508215504 | 59 | 240 | 1.0 | 8.0 | 0.00 | 0.00 | 0.00 | 34 | 1009.4 |
| 20260508215004 | 59 | 65 | 0.0 | 1.0 | 0.00 | 0.00 | 0.00 | 36 | 1009.5 |